sat.trackr.live / text

‹ back to catalog

ZHUQUE-2E R/B

NORAD 69095 · 2026-105A

ROCKET_BODY ACTIVE UNKNOWN

§ Identity

Operator
Country
PRC
Launch date
2026-05-14
Launch site
JSC
Launch vehicle
Mass (kg)
RCS (m²)

External: N2YO · Heavens-Above · Gunter

§ Orbital elements

Epoch: 2026-09-19T21:04:06.592512Z

Period
92.64 min
Inclination
88.9628°
Eccentricity
0.0304131
Mean motion
15.54427709 rev/d
Perigee alt
197.6 km
Apogee alt
610.1 km
Semi-major
6,782.0 km
B*
2.7723e-4
RAAN
180.9932°
Arg perigee
289.9196°
Mean anomaly
66.9541°
Rev number
1,965

§ Raw data

ZHUQUE-2E R/B1 69095U 26105A   26262.87785408  .00177920 -71182-6  27723-3 0  99942 69095  88.9628 180.9932 0304131 289.9196  66.9541 15.54427709 19656

JSON: /api/v1/satellites/69095 · /tle

For live sub-satellite position, see the globe view (requires WebGL).

§ Visibility from observer

Set your observer location to see the next 7 days of passes ≥ 10°. The values pass through the URL so the page stays shareable.

No JS? Fill the form by hand. The geolocation button needs JavaScript.